星链-11420 (STARLINK-11420)

导读 | 星芒AI

STARLINK-11420 是 SpaceX Starlink 卫星互联网项目中的一颗低轨卫星,属于第二批部署的星链卫星之一。该卫星于2020年5月23日由猎鹰9号火箭成功送入近地轨道,旨在为全球提供高速、低延迟的宽带互联网服务。作为星链计划的重要组成部分,STARLINK-11420 与其他卫星协同工作,提升网络覆盖范围和连接质量,尤其在偏远地区具有重要意义。

基本信息
目录编号:
62591
目录名称:
STARLINK-11420
国际标识:
2025-008E
轨道中心:
EARTH
卫星名称:
星链-11420
卫星全名:
星链-11420 (STARLINK-11420)
卫星状态:
在轨 (已飞行342 天)
发射日期:
2025-01-13 UTC
国别 :
美国 (US)
星等 :
--
轨道信息
数据来源 国际轨道数据
星历时间: 2025-12-21T12:05:10+0800
17小时前
查看轨道信息
半长轴: 6734.594km
偏心率: 0.0001506
轨道倾角: 43.000°
近地点辐角 261.611°
升交点赤经 239.591°
平近点角 98.459°
近地点: 355.442km
远地点: 357.472km
周期: 91.670分钟
每日圈数: 15.708535
详细信息
固有亮度:
5
最大亮度:
2.5
卫星平台:
Starlink V1.0
覆盖范围:
全球
运营商:
太空探索技术公司
运营商所在国:
美国
制造商(研发单位):
太空探索技术公司
制造商所在国:
美国
使用方式:
暂无
卫星简介
Starlink 计划是 SpaceX 推出的全球卫星互联网项目,通过发射低轨道卫星,为全球尤其是偏远地区提供高速、低延迟的互联网服务。自 2019 年起,Starlink 已部署数千颗卫星,旨在缩小全球数字鸿沟,推动互联网普及。该项目还为军事、航空等行业提供通信支持,带来广泛经济效益。
2D轨道图
3D轨道图
轨道高度分析图
轨道倾角分析图
轨道综合分析图
查看轨道综合分析图